Weather History for KHIE - May, 2013

Change the Weather History Date:

Sunday, May 5, 2013

  Actual Average Record
Temperature  
Mean Temperature 52 °F -  
Max Temperature 78 °F 60 °F 78 °F (2013)
Min Temperature 30 °F 32 °F 21 °F (1997)
Degree Days  
Heating Degree Days 12    
Growing Degree Days 2 (Base 50)    
Moisture  
Dew Point 33 °F    
Average Humidity 51    
Maximum Humidity 92    
Minimum Humidity 18    
Precipitation  
Precipitation 0.00 in - - ()
Sea Level Pressure  
Sea Level Pressure 30.23 in    
Wind  
Wind Speed 2 mph (SE)    
Max Wind Speed 15 mph    
Max Gust Speed 21 mph    
Visibility 10 miles    
Events      
Averages and records for this station are not official NWS values.
T = Trace of Precipitation, MM = Missing Value Source: NWS Daily Summary

Daily Weather History Graph

Daily Weather History Graph

Search for Another Location

Airport or City:

Trip Planner

Search our weather history database for the weather conditions in past years. The results will help you decide how hot, cold, wet, or windy it might be!

Date:

Astronomy

May. 05, 2013 Rise Set
Actual Time 5:31 AM EDT 7:55 PM EDT
Civil Twilight 4:58 AM EDT 8:27 PM EDT
Nautical Twilight 4:18 AM EDT 9:08 PM EDT
Astronomical Twilight 3:32 AM EDT 9:54 PM EDT
Moon 3:09 AM EDT (5/5) 3:43 PM EDT (5/5)
Length of Visible Light 15h 29m
Length of Day
14h 24m
Waning Crescent, 18% of the Moon is Illuminated
May 5
Waning Crescent
May 9
New
May 18
First Quarter
May 25
Full
May 31
Last Quarter

Hourly Weather History & Observations

Time (EDT) Temp. Dew Point Humidity Pressure Visibility Wind Dir Wind Speed Gust Speed Precip Events Conditions
12:52 AM 39.9 °F 33.1 °F 77% 30.28 in 10.0 mi Calm Calm - N/A   Clear
1:52 AM 37.9 °F 33.1 °F 83% 30.28 in 10.0 mi Calm Calm - N/A   Clear
2:52 AM 36.0 °F 32.0 °F 86% 30.28 in 10.0 mi Calm Calm - N/A   Clear
3:52 AM 34.0 °F 30.9 °F 89% 30.29 in 10.0 mi Calm Calm - N/A   Clear
4:52 AM 32.0 °F 28.9 °F 88% 30.30 in 10.0 mi Calm Calm - N/A   Clear
5:52 AM 30.9 °F 28.9 °F 92% 30.30 in 10.0 mi Calm Calm - N/A   Clear
6:52 AM 37.0 °F 33.1 °F 86% 30.31 in 10.0 mi Calm Calm - N/A   Clear
7:52 AM 46.9 °F 37.0 °F 68% 30.30 in 10.0 mi Calm Calm - N/A   Clear
8:52 AM 53.1 °F 37.0 °F 55% 30.30 in 10.0 mi Calm Calm - N/A   Clear
10:52 AM 64.0 °F 36.0 °F 35% 30.26 in 10.0 mi Variable 3.5 mph - N/A   Clear
11:52 AM 69.1 °F 36.0 °F 30% 30.24 in 10.0 mi Calm Calm - N/A   Clear
12:52 PM 72.0 °F 34.0 °F 25% 30.21 in 10.0 mi Calm Calm - N/A   Clear
1:52 PM 75.0 °F 34.0 °F 22% 30.19 in 10.0 mi East 8.1 mph - N/A   Clear
2:52 PM 75.9 °F 28.9 °F 18% 30.17 in 10.0 mi East 6.9 mph 18.4 mph N/A   Clear
3:52 PM 75.9 °F 30.9 °F 19% 30.16 in 10.0 mi Variable 3.5 mph 18.4 mph N/A   Clear
4:52 PM 75.0 °F 33.1 °F 22% 30.15 in 10.0 mi South 10.4 mph - N/A   Clear
5:52 PM 73.0 °F 33.1 °F 23% 30.16 in 10.0 mi SSE 9.2 mph 17.3 mph N/A   Clear
6:52 PM 70.0 °F 32.0 °F 25% 30.16 in 10.0 mi SSE 15.0 mph 20.7 mph N/A   Clear
7:52 PM 66.9 °F 30.0 °F 25% 30.17 in 10.0 mi South 10.4 mph - N/A   Clear
8:52 PM 64.0 °F 30.0 °F 28% 30.18 in 10.0 mi SSE 6.9 mph - N/A   Clear
9:52 PM 54.0 °F 33.1 °F 45% 30.20 in 10.0 mi Calm Calm - N/A   Clear
10:52 PM 48.9 °F 36.0 °F 61% 30.21 in 10.0 mi SE 3.5 mph - N/A   Clear
11:52 PM 45.0 °F 35.1 °F 68% 30.22 in 10.0 mi Calm Calm - N/A   Clear